Location: Góry Miechowskie
(50.3599°N, 20.1803°E)
Time: 14:58:15
(UTC+00:00)

Vanguard 2 - Pass Details

Date: 19 September 2024
Orbit: 552 x 2910 km, 32.9° (Epoch: 15 October)

Event Time Altitude Azimuth Distance (km) Brightness Sun altitude
Rises 05:44:33 0° 246° (WSW) 3,718 10.6 12.3°
Reaches altitude 10° 05:48:55 10° 218° (SW) 3,214 10.5 13.0°
Maximum altitude 05:52:01 13° 195° (SSW) 3,338 10.8 13.5°
Drops below altitude 10° 05:55:38 10° 173° (S) 3,901 11.5 14.0°
Sets 06:02:28 0° 150° (SSE) 5,529 12.7 15.1°
